KAITUO 1B
1 40912U 15049P   18060.55519748 +.00001207 +00000-0 +61665-4 0  9992
2 40912 097.4513 069.4176 0016591 031.0530 067.3783 15.18478351135336
TIANWANG 1C (TW-1C)
1 40926U 15051B   18061.16224793  .00007173  00000-0  14243-3 0  9998
2 40926  97.1982 104.0559 0009437 318.5516  89.6395 15.47252395136750
TIANWANG 1B (TW-1B)
1 40927U 15051C   18061.57172446  .00007055  00000-0  14591-3 0  9996
2 40927  97.2069 104.3529 0009220 329.1812 186.0660 15.46070203136735
TIANWANG 1A (TW-1A)
1 40928U 15051D   18060.49442469 +.00003001 +00000-0 +82133-4 0  9997
2 40928 097.1990 096.5795 0012340 359.9439 105.9594 15.38046696136228
LAPAN A2
1 40931U 15052B   18059.91903565  .00000676  00000-0  49304-5 0  9995
2 40931   5.9990 202.1047 0014338 277.2925  82.5994 14.76566087130977
LQSAT
1 40958U 15057A   18060.70258848  .00000021  00000-0  11050-4 0  9995
2 40958  97.9496 136.1585 0017447 325.7338  34.2744 14.73018064129027
CHUBUSAT 2
1 41338U 16012B   18060.77473257  .00000344  00000-0  20219-4 0  9995
2 41338  31.0029 276.0642 0013677  89.7061 270.5142 14.99927008111696
CHUBUSAT 3
1 41339U 16012C   18061.00165310  .00000334  00000-0  19367-4 0  9992
2 41339  31.0116 273.3771 0013390  99.2843 260.9307 15.00118553111712
OUFTI-1
1 41458U 16025C   18061.09289906  .00002539  00000-0  13568-3 0  9990
2 41458  98.1518 118.1718 0171766 146.5462 214.6760 15.04304015101336
E-STAR-2
1 41459U 16025D   18060.41629217 +.00001612 +00000-0 +88029-4 0  9995
2 41459 098.1532 117.3406 0173145 149.2268 211.9240 15.04061390101222
AAUSAT 4
1 41460U 16025E   18061.15741168  .00003055  00000-0  16174-3 0  9993
2 41460  98.1462 118.4635 0164181 143.5434 217.7113 15.05358158101386
NUSAT 1
1 41557U 16033B   18061.17395416  .00001261  00000-0  48766-4 0  9992
2 41557  97.4418 145.5770 0014219 169.5758 190.5779 15.28033750 97811
BEESAT 4
1 41619U 16040W   18060.24409089  .00001214  00000-0  56575-4 0  9993
2 41619  97.4286 124.8323 0010248 245.0231 114.9941 15.21780179 81676
PRATHAM
1 41783U 16059A   18061.16375223  .00000042  00000-0  17431-4 0  9995
2 41783  98.1318 124.3801 0034829  72.5899 287.9106 14.62903138 76317
ALSAT 1N
1 41789U 16059G   18061.07425615  .00000041  00000-0  16932-4 0  9996
2 41789  98.1321 125.2987 0029646  65.6129 294.8169 14.64130014 76348
NAYIF 1
1 42017U 17008BX  18060.56580263 +.00001316 +00000-0 +57160-4 0  9994
2 42017 097.4614 126.2165 0007567 049.1485 311.0407 15.24076129057674
LILACSAT-1
1 42725U 98067ME  18061.15572079  .00018391  00000-0  19299-3 0  9997
2 42725  51.6373 181.9755 0004329 193.7678 166.3199 15.64417391 43735
MAX VALIER SAT
1 42778U 17036P   18061.35369192  .00000839  00000-0  40816-4 0  9992
2 42778  97.4175 122.7782 0014415  85.6508 274.6374 15.21062441 38267
